Brady, TX

2:52 PM CDT on August 20, 2017 (GMT -0500)
Curtis

Weather History for KBBD - December, 2013

Change the Weather History Date:

Monday, December 23, 2013

  Actual Average (KJCT) Record (KJCT)
Temperature  
Mean Temperature 40 °F -  
Max Temperature 55 °F 57 °F 79 °F (2012)
Min Temperature 24 °F 29 °F 17 °F (2007)
Degree Days  
Heating Degree Days 26    
Moisture  
Dew Point 25 °F    
Average Humidity 61    
Maximum Humidity 93    
Minimum Humidity 31    
Precipitation  
Precipitation 0.00 in - - ()
Sea Level Pressure  
Sea Level Pressure 30.41 in    
Wind  
Wind Speed 2 mph (SSE)    
Max Wind Speed 7 mph    
Max Gust Speed -    
Visibility 10 miles    
Events      
Averages and records for this station are not official NWS values.
T = Trace of Precipitation, MM = Missing Value Source: NWS Daily Summary

Daily Weather History Graph

Daily Weather History Graph

Search for Another Location

Airport or City:

Trip Planner

Search our weather history database for the weather conditions in past years. The results will help you decide how hot, cold, wet, or windy it might be!

Date:

Astronomy

Dec. 23, 2013 Rise Set
Actual Time 7:32 AM CST 5:40 PM CST
Civil Twilight 7:06 AM CST 6:07 PM CST
Nautical Twilight 6:35 AM CST 6:37 PM CST
Astronomical Twilight 6:06 AM CST 7:06 PM CST
Moon 11:29 PM CST (12/23) 11:19 AM CST (12/23)
Length of Visible Light 11h 00m
Length of Day
10h 07m
Waning Gibbous, 68% of the Moon is Illuminated
Dec 23
Waning Gibbous
Dec 25
Last Quarter
Jan 1
New
Jan 7
First Quarter
Jan 15
Full

Hourly Weather History & Observations

Time (CST) Temp. Windchill Dew Point Humidity Pressure Visibility Wind Dir Wind Speed Gust Speed Precip Events Conditions
12:15 AM 30.2 °F - 26.6 °F 86% 30.34 in - Calm Calm - N/A   Unknown
12:35 AM 28.4 °F 24.6 °F 24.8 °F 86% 30.34 in - West 3.5 mph - N/A   Unknown
12:55 AM 28.4 °F - 24.8 °F 86% 30.34 in - Calm Calm - N/A   Unknown
1:15 AM 30.2 °F - 24.8 °F 80% 30.34 in - Calm Calm - N/A   Unknown
1:35 AM 30.2 °F - 24.8 °F 80% 30.34 in - Calm Calm - N/A   Unknown
1:55 AM 30.2 °F - 24.8 °F 80% 30.35 in - Calm Calm - N/A   Unknown
2:35 AM 28.4 °F - 24.8 °F 86% 30.35 in - Calm Calm - N/A   Unknown
2:55 AM 28.4 °F - 24.8 °F 86% 30.35 in - Calm Calm - N/A   Unknown
3:15 AM 28.4 °F - 24.8 °F 86% 30.36 in - Calm Calm - N/A   Unknown
3:35 AM 28.4 °F - 24.8 °F 86% 30.36 in - Calm Calm - N/A   Unknown
3:55 AM 26.6 °F - 24.8 °F 93% 30.36 in - Calm Calm - N/A   Unknown
4:15 AM 28.4 °F 24.6 °F 24.8 °F 86% 30.35 in - WNW 3.5 mph - N/A   Unknown
4:35 AM 28.4 °F - 24.8 °F 86% 30.35 in - Calm Calm - N/A   Unknown
4:55 AM 26.6 °F - 23.0 °F 86% 30.35 in - Calm Calm - N/A   Unknown
5:15 AM 26.6 °F 21.2 °F 24.8 °F 93% 30.36 in - West 4.6 mph - N/A   Unknown
5:35 AM 26.6 °F 22.6 °F 23.0 °F 86% 30.37 in - WSW 3.5 mph - N/A   Unknown
5:55 AM 26.6 °F - 23.0 °F 86% 30.37 in - Calm Calm - N/A   Unknown
6:15 AM 26.6 °F - 24.8 °F 93% 30.37 in - Calm Calm - N/A   Unknown
6:35 AM 26.6 °F - 24.8 °F 93% 30.38 in - Calm Calm - N/A   Unknown
6:55 AM 26.6 °F - 23.0 °F 86% 30.39 in - Calm Calm - N/A   Unknown
7:15 AM 24.8 °F 20.5 °F 23.0 °F 93% 30.39 in - West 3.5 mph - N/A   Unknown
7:35 AM 24.8 °F 20.5 °F 23.0 °F 93% 30.40 in - West 3.5 mph - N/A   Unknown
7:55 AM 26.6 °F 22.6 °F 23.0 °F 86% 30.41 in - West 3.5 mph - N/A   Unknown
8:15 AM 28.4 °F - 24.8 °F 86% 30.43 in - Calm Calm - N/A   Unknown
8:35 AM 30.2 °F - 26.6 °F 86% 30.43 in - Calm Calm - N/A   Unknown
8:55 AM 33.8 °F 30.8 °F 26.6 °F 75% 30.44 in - West 3.5 mph - N/A   Unknown
9:15 AM 35.6 °F 31.7 °F 28.4 °F 75% 30.44 in - West 4.6 mph - N/A   Unknown
9:35 AM 37.4 °F 33.8 °F 28.4 °F 70% 30.45 in - West 4.6 mph - N/A   Unknown
9:55 AM 39.2 °F 35.9 °F 28.4 °F 65% 30.46 in - West 4.6 mph - N/A   Unknown
10:15 AM 39.2 °F 37.0 °F 28.4 °F 65% 30.46 in - West 3.5 mph - N/A   Unknown
10:35 AM 41.0 °F 38.0 °F 24.8 °F 53% 30.45 in - SSW 4.6 mph - N/A   Unknown
10:55 AM 44.6 °F 43.1 °F 23.0 °F 43% 30.45 in - SW 3.5 mph - N/A   Unknown
11:15 AM 46.4 °F - 21.2 °F 37% 30.45 in - Calm Calm - N/A   Unknown
11:35 AM 48.2 °F - 21.2 °F 34% 30.45 in - Calm Calm - N/A   Unknown
11:55 AM 46.4 °F 45.2 °F 23.0 °F 40% 30.45 in - Variable 3.5 mph - N/A   Unknown
12:15 PM 48.2 °F - 23.0 °F 37% 30.44 in 10.0 mi Calm Calm - N/A   Clear
12:35 PM 48.2 °F - 23.0 °F 37% 30.44 in - Calm Calm - N/A   Unknown
12:55 PM 48.2 °F - 24.8 °F 40% 30.42 in - SE 3.5 mph - N/A   Unknown
1:15 PM 50.0 °F - 24.8 °F 37% 30.42 in 10.0 mi Calm Calm - N/A   Clear
1:35 PM 50.0 °F - 24.8 °F 37% 30.41 in - Variable 3.5 mph - N/A   Unknown
1:55 PM 51.8 °F - 24.8 °F 35% 30.40 in - Variable 5.8 mph - N/A   Unknown
2:15 PM 53.6 °F - 24.8 °F 33% 30.40 in - SSW 5.8 mph - N/A   Unknown
2:35 PM 53.6 °F - 24.8 °F 33% 30.40 in - Variable 3.5 mph - N/A   Unknown
2:55 PM 53.6 °F - 24.8 °F 33% 30.40 in - Variable 3.5 mph - N/A   Unknown
3:15 PM 55.4 °F - 26.6 °F 33% 30.40 in - WSW 4.6 mph - N/A   Unknown
3:35 PM 55.4 °F - 24.8 °F 31% 30.41 in - WSW 5.8 mph - N/A   Unknown
3:55 PM 55.4 °F - 26.6 °F 33% 30.41 in - Calm Calm - N/A   Unknown
4:15 PM 55.4 °F - 26.6 °F 33% 30.41 in - Calm Calm - N/A   Unknown
4:35 PM 55.4 °F - 26.6 °F 33% 30.41 in 10.0 mi Calm Calm - N/A   Clear
4:55 PM 55.4 °F - 26.6 °F 33% 30.41 in - Calm Calm - N/A   Unknown
5:15 PM 51.8 °F - 26.6 °F 38% 30.41 in - Calm Calm - N/A   Unknown
5:35 PM 51.8 °F - 26.6 °F 38% 30.41 in - ESE 3.5 mph - N/A   Unknown
5:55 PM 48.2 °F - 26.6 °F 43% 30.42 in - ESE 3.5 mph - N/A   Unknown
6:15 PM 48.2 °F - 26.6 °F 43% 30.42 in - East 4.6 mph - N/A   Unknown
6:35 PM 46.4 °F 45.2 °F 26.6 °F 46% 30.43 in - East 3.5 mph - N/A   Unknown
6:55 PM 46.4 °F 43.5 °F 24.8 °F 43% 30.43 in - ESE 5.8 mph - N/A   Unknown
7:15 PM 44.6 °F 41.4 °F 24.8 °F 46% 30.43 in - ESE 5.8 mph - N/A   Unknown
7:35 PM 44.6 °F 42.2 °F 24.8 °F 46% 30.44 in - East 4.6 mph - N/A   Unknown
7:55 PM 41.0 °F 37.1 °F 26.6 °F 57% 30.45 in - East 5.8 mph - N/A   Unknown
8:15 PM 41.0 °F 38.0 °F 24.8 °F 53% 30.45 in - East 4.6 mph - N/A   Unknown
8:35 PM 41.0 °F 37.1 °F 26.6 °F 57% 30.46 in - ENE 5.8 mph - N/A   Unknown
8:55 PM 41.0 °F 37.1 °F 26.6 °F 57% 30.46 in - ENE 5.8 mph - N/A   Unknown
9:15 PM 41.0 °F 36.4 °F 26.6 °F 57% 30.47 in - ENE 6.9 mph - N/A   Unknown
9:35 PM 39.2 °F 35.0 °F 26.6 °F 61% 30.47 in - East 5.8 mph - N/A   Unknown
9:55 PM 39.2 °F 35.9 °F 26.6 °F 61% 30.47 in - East 4.6 mph - N/A   Unknown
10:15 PM 39.2 °F 35.9 °F 26.6 °F 61% 30.48 in - ESE 4.6 mph - N/A   Unknown
10:35 PM 39.2 °F 35.9 °F 26.6 °F 61% 30.48 in - SE 4.6 mph - N/A   Unknown
10:55 PM 39.2 °F 35.0 °F 26.6 °F 61% 30.48 in - SE 5.8 mph - N/A   Unknown
11:15 PM 37.4 °F 32.8 °F 24.8 °F 60% 30.48 in - SE 5.8 mph - N/A   Unknown
11:35 PM 39.2 °F 35.9 °F 24.8 °F 56% 30.48 in - SE 4.6 mph - N/A   Unknown
11:55 PM 39.2 °F 35.9 °F 23.0 °F 52% 30.47 in - SE 4.6 mph - N/A   Unknown